Willmar, MN

7:28 PM CDT on April 25, 2018 (GMT -0500)
Willmar

Weather History for KBDH - February, 2013

Change the Weather History Date:

Monday, February 4, 2013

  Actual Average (KBBB) Record (KBBB)
Temperature  
Mean Temperature 7 °F -  
Max Temperature 19 °F 20 °F 55 °F (1990)
Min Temperature -5 °F 2 °F -25 °F (1979)
Degree Days  
Heating Degree Days 58    
Moisture  
Dew Point 2 °F    
Average Humidity 75    
Maximum Humidity 93    
Minimum Humidity 61    
Precipitation  
Precipitation 0.01 in - - ()
Sea Level Pressure  
Sea Level Pressure 29.93 in    
Wind  
Wind Speed 5 mph (SE)    
Max Wind Speed 13 mph    
Max Gust Speed -    
Visibility 9 miles    
Events Snow    
Averages and records for this station are not official NWS values.
T = Trace of Precipitation, MM = Missing Value Source: NWS Daily Summary

Daily Weather History Graph

Daily Weather History Graph

Search for Another Location

Airport or City:

Astronomy

Feb. 04, 2013 Rise Set
Actual Time 7:36 AM CST 5:32 PM CST
Civil Twilight 7:05 AM CST 6:04 PM CST
Nautical Twilight 6:30 AM CST 6:39 PM CST
Astronomical Twilight 5:56 AM CST 7:13 PM CST
Moon 2:16 AM CST (2/4) 11:53 AM CST (2/4)
Length of Visible Light 10h 58m
Length of Day
9h 56m
Last Quarter, 37% of the Moon is Illuminated
Feb 4
Last Quarter
Feb 10
New
Feb 17
First Quarter
Feb 25
Full
Mar 4
Last Quarter

Hourly Weather History & Observations

Time (CST) Temp. Windchill Dew Point Humidity Pressure Visibility Wind Dir Wind Speed Gust Speed Precip Events Conditions
12:15 AM 10.4 °F -0.4 °F 3.2 °F 73% 29.97 in 10.0 mi NNE 6.9 mph - N/A   Overcast
12:35 AM 10.4 °F 0.8 °F 3.2 °F 73% 29.96 in 4.0 mi NNE 5.8 mph - N/A Snow Light Snow
12:55 AM 10.4 °F -0.4 °F 3.2 °F 73% 29.96 in 7.0 mi NNE 6.9 mph - N/A Snow Light Snow
1:15 AM 8.6 °F -1.3 °F 3.2 °F 79% 29.96 in 7.0 mi NNE 5.8 mph - N/A Snow Light Snow
1:35 AM 8.6 °F 2.0 °F 3.2 °F 79% 29.97 in 7.0 mi North 3.5 mph - N/A Snow Light Snow
1:55 AM 8.6 °F 0.1 °F 3.2 °F 79% 29.97 in 10.0 mi North 4.6 mph - N/A   Overcast
2:15 AM 8.6 °F -3.7 °F 3.2 °F 79% 29.98 in 10.0 mi NNE 8.1 mph - N/A   Overcast
2:35 AM 8.6 °F -3.7 °F 3.2 °F 79% 29.98 in 10.0 mi NE 8.1 mph - N/A   Overcast
2:55 AM 8.6 °F -2.6 °F 1.4 °F 73% 29.98 in 10.0 mi NNE 6.9 mph - N/A   Overcast
3:15 AM 8.6 °F -2.6 °F 1.4 °F 73% 29.99 in 10.0 mi NNE 6.9 mph - N/A   Overcast
4:55 AM 6.8 °F -0.1 °F -0.4 °F 72% 30.00 in 10.0 mi North 3.5 mph - N/A   Overcast
5:16 AM 5.0 °F -5.6 °F -2.2 °F 72% 30.00 in 10.0 mi NNE 5.8 mph - N/A   Mostly Cloudy
5:35 AM 3.2 °F -6.2 °F -2.2 °F 78% 30.01 in 10.0 mi North 4.6 mph - N/A   Mostly Cloudy
5:55 AM 3.2 °F -6.2 °F -4.0 °F 72% 30.02 in 10.0 mi North 4.6 mph - N/A   Overcast
6:15 AM 1.4 °F -8.3 °F -4.0 °F 78% 30.02 in 10.0 mi North 4.6 mph - N/A   Mostly Cloudy
6:55 AM -0.4 °F - -7.6 °F 72% 30.02 in 10.0 mi Calm Calm - N/A   Clear
7:15 AM -0.4 °F - -5.8 °F 78% 30.02 in 10.0 mi Calm Calm - N/A   Clear
7:35 AM -0.4 °F - -5.8 °F 78% 30.03 in 10.0 mi Calm Calm - N/A   Clear
7:55 AM -2.2 °F -10.4 °F -5.8 °F 85% 30.03 in 10.0 mi North 3.5 mph - N/A   Clear
8:15 AM -5.8 °F - -9.4 °F 84% 30.03 in 10.0 mi Calm Calm - N/A   Scattered Clouds
8:35 AM -2.2 °F - -7.6 °F 78% 30.04 in 10.0 mi Calm Calm - N/A   Mostly Cloudy
8:55 AM -0.4 °F - -5.8 °F 78% 30.04 in 10.0 mi Calm Calm - N/A   Scattered Clouds
9:15 AM 1.4 °F - -4.0 °F 78% 30.04 in 10.0 mi Calm Calm - N/A   Scattered Clouds
9:35 AM 3.2 °F - -2.2 °F 78% 30.04 in 10.0 mi Calm Calm - N/A   Scattered Clouds
9:55 AM 5.0 °F - -4.0 °F 66% 30.04 in 10.0 mi Calm Calm - N/A   Clear
10:15 AM 6.8 °F - -4.0 °F 61% 30.04 in 10.0 mi Calm Calm - N/A   Clear
10:35 AM 6.8 °F - -2.2 °F 67% 30.03 in 10.0 mi Calm Calm - N/A   Clear
10:55 AM 6.8 °F -2.0 °F -2.2 °F 67% 30.02 in 10.0 mi SE 4.6 mph - N/A   Clear
11:15 AM 6.8 °F -3.5 °F -2.2 °F 67% 30.02 in 10.0 mi SSE 5.8 mph - N/A   Scattered Clouds
11:35 AM 8.6 °F 2.0 °F -2.2 °F 62% 30.03 in 10.0 mi SSE 3.5 mph - N/A   Scattered Clouds
11:55 AM 8.6 °F 2.0 °F -2.2 °F 62% 30.02 in 10.0 mi SSE 3.5 mph - N/A   Clear
12:15 PM 8.6 °F 0.1 °F -2.2 °F 62% 30.01 in 10.0 mi SSE 4.6 mph - N/A   Clear
12:35 PM 8.6 °F 0.1 °F -2.2 °F 62% 30.02 in 10.0 mi SSW 4.6 mph - N/A   Clear
12:55 PM 8.6 °F - -0.4 °F 67% 30.01 in 10.0 mi Calm Calm - N/A   Clear
1:15 PM 8.6 °F - -0.4 °F 67% 29.99 in 10.0 mi Calm Calm - N/A   Clear
1:35 PM 8.6 °F 0.1 °F -0.4 °F 67% 29.97 in 10.0 mi South 4.6 mph - N/A   Clear
1:55 PM 8.6 °F 0.1 °F -0.4 °F 67% 29.91 in 10.0 mi South 4.6 mph - N/A   Scattered Clouds
2:35 PM 8.6 °F 2.0 °F 1.4 °F 73% 29.93 in 10.0 mi South 3.5 mph - N/A   Clear
2:55 PM 8.6 °F 2.0 °F 1.4 °F 73% 29.93 in 10.0 mi South 3.5 mph - N/A   Clear
3:15 PM 10.4 °F 2.2 °F 1.4 °F 67% 29.95 in 10.0 mi SSW 4.6 mph - N/A   Clear
3:35 PM 10.4 °F -0.4 °F 1.4 °F 67% 29.96 in 10.0 mi SW 6.9 mph - N/A   Clear
3:55 PM 10.4 °F -2.4 °F 1.4 °F 67% 29.95 in 10.0 mi SW 9.2 mph - N/A   Clear
4:15 PM 10.4 °F 2.2 °F 3.2 °F 73% 29.93 in 10.0 mi South 4.6 mph - N/A   Clear
4:35 PM 10.4 °F - 1.4 °F 67% 29.91 in 10.0 mi Calm Calm - N/A   Clear
4:55 PM 8.6 °F -3.7 °F 1.4 °F 73% 29.89 in 10.0 mi SSE 8.1 mph - N/A   Clear
5:15 PM 8.6 °F -3.7 °F 1.4 °F 73% 29.87 in 10.0 mi SSE 8.1 mph - N/A   Clear
5:35 PM 8.6 °F -4.7 °F 1.4 °F 73% 29.87 in 10.0 mi SE 9.2 mph - N/A   Clear
5:55 PM 8.6 °F -3.7 °F 1.4 °F 73% 29.85 in 10.0 mi SE 8.1 mph - N/A   Clear
6:15 PM 8.6 °F -5.5 °F 1.4 °F 73% 29.84 in 10.0 mi SE 10.4 mph - N/A   Clear
6:35 PM 8.6 °F -4.7 °F 3.2 °F 79% 29.84 in 10.0 mi SE 9.2 mph - N/A   Clear
6:55 PM 8.6 °F -4.7 °F 3.2 °F 79% 29.83 in 10.0 mi SSE 9.2 mph - N/A   Clear
7:15 PM 10.4 °F -1.5 °F 3.2 °F 73% 29.84 in 10.0 mi SSE 8.1 mph - N/A   Clear
7:35 PM 10.4 °F -0.4 °F 5.0 °F 79% 29.84 in 10.0 mi South 6.9 mph - N/A   Clear
7:55 PM 10.4 °F -0.4 °F 6.8 °F 85% 29.83 in 10.0 mi SSE 6.9 mph - N/A   Scattered Clouds
8:15 PM 12.2 °F -0.2 °F 6.8 °F 79% 29.82 in 2.5 mi SSE 9.2 mph - N/A Snow Light Snow
8:35 PM 12.2 °F -0.2 °F 6.8 °F 79% 29.81 in 1.2 mi SSE 9.2 mph - N/A Snow Light Snow
8:55 PM 12.2 °F 1.7 °F 8.6 °F 85% 29.80 in 1.2 mi SSE 6.9 mph - N/A Snow Light Snow
9:15 PM 12.2 °F 2.9 °F 8.6 °F 85% 29.79 in 1.5 mi SSE 5.8 mph - N/A Snow Light Snow
9:36 PM 12.2 °F -0.2 °F 10.4 °F 92% 29.77 in 4.0 mi SSE 9.2 mph - 0.01 in Snow Light Snow
9:55 PM 14.0 °F 1.2 °F 10.4 °F 86% 29.75 in 10.0 mi SSE 10.4 mph - 0.01 in   Overcast
10:15 PM 15.8 °F 3.4 °F 12.2 °F 86% 29.73 in 7.0 mi SSE 10.4 mph - N/A Snow Light Snow
10:35 PM 17.6 °F 4.3 °F 14.0 °F 86% 29.69 in 10.0 mi SSE 12.7 mph - N/A   Overcast
10:55 PM 17.6 °F 12.3 °F 15.8 °F 93% 29.71 in 10.0 mi South 3.5 mph - N/A   Overcast
11:15 PM 17.6 °F 12.3 °F 15.8 °F 93% 29.69 in 7.0 mi South 3.5 mph - N/A   Mostly Cloudy
11:35 PM 19.4 °F 11.5 °F 15.8 °F 86% 29.69 in 10.0 mi South 5.8 mph - N/A   Scattered Clouds
11:55 PM 19.4 °F 12.8 °F 15.8 °F 86% 29.69 in 10.0 mi SSW 4.6 mph - N/A   Scattered Clouds